Theta_e
313 306 304 303 305 308 310 310 310 310 313 313 310 308 307 308 308 314 317 322 323 318 315 317 317 316 316 318 320 323 324 322 323 323 324 326 327 328 331 333 334 335 336 340 343 345 348 349 350 350 350 350 350 351 351 351 351 351 351 350 348 350 352 351 347 344 342 340 338 338 338 337 337 338 337 336 336 336 336 334 333 332 332 331 332 330
311 303 302 306 310 311 312 313 312 310 311 311 309 308 307 308 305 311 314 322 322 317 314 317 314 314 316 318 320 323 322 322 323 323 323 325 327 328 331 332 334 336 339 340 340 345 347 348 349 349 349 350 347 349 350 349 350 350 351 349 349 349 350 349 348 349 345 343 340 339 338 339 339 337 334 333 334 335 337 335 332 331 329 329 331 333
302 300 304 307 310 311 310 310 310 309 308 308 307 307 307 306 309 312 317 321 320 317 313 315 313 313 316 318 319 321 321 323 326 325 325 326 326 327 330 332 334 334 334 339 340 344 345 347 348 348 348 348 349 349 349 349 349 349 349 348 349 350 349 348 350 346 345 346 346 342 341 339 336 337 338 336 338 338 334 333 332 331 329 329 328 330
299 300 306 309 309 308 308 309 308 308 308 304 303 304 302 306 305 302 315 320 319 315 311 314 313 314 319 320 321 322 325 324 326 326 327 328 326 327 329 332 332 332 332 337 339 341 344 346 346 346 346 347 348 349 348 347 347 348 347 346 348 349 348 348 349 348 343 345 342 340 339 338 336 335 340 337 336 334 332 332 332 329 326 325 325 327
301 303 308 309 309 308 306 307 305 303 302 305 305 302 302 305 306 304 310 315 317 318 317 316 311 312 315 315 316 322 326 325 325 326 326 327 328 329 331 332 332 331 334 338 339 341 342 343 344 345 346 347 347 348 347 347 348 347 345 346 348 348 348 348 352 345 345 344 341 339 337 338 336 336 334 333 333 335 336 332 329 327 326 325 323 323
302 307 309 307 307 306 305 304 304 304 299 301 305 306 305 306 305 306 311 312 309 307 315 314 304 304 310 314 315 319 321 321 324 324 324 325 326 327 327 328 331 334 338 339 339 340 342 343 344 344 345 346 347 347 348 349 349 347 347 348 348 346 346 346 347 349 347 345 339 334 330 328 328 328 328 328 329 329 330 330 331 330 329 325 323 322
302 307 307 306 306 305 304 304 304 305 299 299 300 305 307 307 307 306 309 310 303 302 312 317 304 299 307 312 315 318 319 319 321 322 323 325 326 326 326 328 329 332 338 341 341 342 341 342 342 343 344 345 346 347 349 349 349 348 347 348 346 345 346 347 346 346 344 339 337 333 331 329 329 329 330 331 330 328 327 324 323 323 323 322 321 321
306 305 304 305 305 304 302 301 304 305 300 297 304 307 309 306 306 305 305 304 303 311 315 316 306 300 302 310 316 319 318 318 320 321 322 324 326 326 327 327 328 333 338 340 340 341 342 342 341 341 343 345 346 348 348 348 348 348 347 347 346 347 347 342 341 340 339 336 336 335 334 335 330 328 327 328 328 329 328 324 323 322 320 320 319 319
302 302 303 302 302 300 300 303 304 305 302 301 305 309 306 307 307 306 304 301 302 306 302 310 313 301 301 307 316 318 315 316 318 320 322 323 325 326 327 328 328 332 338 340 340 340 340 340 341 342 342 345 347 347 346 347 347 347 347 346 344 340 340 340 342 339 339 340 335 334 332 330 331 331 332 332 330 325 324 320 320 319 318 318 318 318
304 303 303 304 302 299 303 306 306 306 302 304 307 308 308 308 307 306 302 302 301 298 295 304 307 298 299 305 311 317 315 315 318 321 322 324 325 326 328 328 329 332 336 340 341 341 341 341 341 342 344 345 346 347 348 346 346 345 344 342 339 337 337 337 335 334 333 333 334 330 330 330 329 329 326 324 322 321 320 319 318 317 317 316 317 318
304 312 312 306 302 304 304 304 305 304 306 307 306 305 302 301 302 302 300 298 296 295 293 301 307 304 297 302 310 312 314 318 320 321 324 325 326 327 328 329 329 331 336 338 340 340 340 340 341 342 343 344 345 345 345 344 344 344 341 336 336 337 337 336 334 333 332 331 329 327 327 326 324 323 322 320 319 319 318 317 316 316 316 316 316 317
302 303 303 305 309 308 306 304 306 307 307 307 302 301 297 298 300 298 297 298 293 288 295 302 303 307 297 300 308 316 319 320 320 319 322 325 325 326 328 330 330 332 336 338 339 338 338 339 340 341 341 342 343 344 344 344 344 340 336 336 334 334 334 334 334 333 332 330 328 326 325 324 324 323 321 319 317 317 316 315 314 314 315 315 317 316
298 300 302 304 312 306 304 302 300 301 303 301 299 298 294 290 292 288 292 291 290 289 296 300 306 303 299 303 310 315 319 320 322 322 323 326 327 327 328 330 331 333 336 338 339 338 338 338 339 340 340 341 341 342 342 342 339 336 336 335 333 331 331 330 330 329 329 327 326 325 324 324 323 321 320 318 316 316 315 314 313 313 313 313 314 315
294 298 300 302 304 307 305 297 294 298 298 301 300 295 290 289 288 286 288 290 291 295 300 300 306 299 302 308 313 314 319 322 323 323 325 328 329 328 329 331 332 333 336 338 339 339 338 338 339 340 340 340 341 341 340 338 336 335 334 333 331 329 329 328 327 327 326 326 325 325 323 322 321 320 319 318 317 316 314 314 313 314 314 314 314 316
289 291 297 301 297 304 304 302 301 298 297 298 300 298 294 291 290 287 288 287 287 292 295 301 299 296 299 302 313 317 321 323 321 323 325 328 331 330 331 332 332 333 335 337 338 339 338 339 339 339 339 339 340 339 337 335 334 333 332 331 329 326 326 326 326 326 326 326 325 324 323 322 320 318 317 317 318 315 313 313 313 313 314 314 314 316
294 293 298 302 304 303 303 306 306 302 300 299 300 299 294 295 296 292 290 291 291 291 292 295 297 303 304 312 318 317 320 327 331 324 331 329 330 330 330 331 331 333 334 337 338 338 338 339 339 339 339 339 338 337 334 334 333 332 331 329 328 327 329 330 328 324 322 324 326 325 324 324 324 324 320 320 319 315 314 314 314 314 314 316 317 320
297 291 297 302 304 303 305 307 305 305 294 296 299 295 298 299 300 296 299 299 298 292 289 299 304 308 311 314 315 318 326 328 329 329 329 328 329 330 329 330 331 333 334 336 337 337 338 338 339 339 338 338 337 333 333 333 332 331 330 329 328 328 326 324 323 321 320 319 319 318 319 319 317 315 313 313 314 315 316 316 315 316 316 317 317 320
291 292 299 301 301 304 307 307 305 307 302 298 294 298 300 302 300 295 289 292 292 288 289 301 301 301 303 300 316 322 325 326 327 328 328 328 329 328 329 330 332 333 334 337 338 338 338 338 338 338 338 337 334 333 333 332 332 331 330 329 327 325 325 324 322 322 320 319 318 317 317 317 317 316 316 315 314 315 313 313 314 315 316 315 318 319
299 291 297 300 302 304 306 305 304 306 307 302 299 302 300 292 292 291 292 288 286 287 287 298 301 304 302 304 314 318 323 325 326 327 327 327 328 328 329 331 333 335 336 336 336 336 336 336 336 337 336 335 334 334 333 333 331 330 329 328 327 326 323 322 322 322 322 322 322 320 317 315 315 315 315 316 316 314 313 314 314 315 315 315 318 319
300 293 294 300 302 304 300 300 294 298 303 304 304 301 301 295 291 293 292 290 291 286 289 294 299 298 307 303 313 318 324 327 327 326 326 328 329 329 330 331 333 335 335 335 335 335 336 336 336 336 334 332 332 333 333 332 330 329 329 329 325 324 323 323 322 323 320 320 320 320 319 318 318 318 316 316 313 313 314 314 315 316 316 317 319 315
298 297 291 295 300 301 294 298 295 297 297 299 298 294 299 301 299 296 299 292 289 287 287 291 293 299 306 318 319 320 326 329 328 327 328 329 330 331 331 332 334 335 335 335 335 335 334 334 335 334 332 332 332 332 331 330 329 329 327 323 322 321 321 321 321 321 320 319 318 318 315 315 314 314 314 314 315 315 315 318 321 315 317 317 316 316
299 297 292 293 294 293 298 299 302 300 299 298 298 297 298 296 295 293 290 295 295 293 289 290 291 300 311 329 326 324 329 331 332 330 329 331 332 332 332 334 335 335 335 335 335 334 333 333 333 332 332 332 331 330 329 330 329 326 323 322 321 321 321 320 320 319 318 318 317 316 316 316 315 314 313 313 314 315 314 314 315 318 316 314 316 316
300 298 300 293 294 296 298 303 305 305 304 302 301 298 300 295 293 289 287 287 293 293 298 295 299 301 314 326 326 328 330 332 334 333 331 332 333 333 333 335 336 336 335 335 335 334 333 333 332 331 331 331 330 329 329 329 328 325 323 322 321 321 321 321 319 319 318 317 317 317 316 315 314 314 313 313 313 313 314 314 314 319 312 312 314 317
326 296 294 294 298 301 302 304 305 306 306 301 301 300 299 297 298 296 294 292 294 292 292 297 299 302 313 325 326 332 336 336 335 334 333 334 334 334 334 334 334 334 335 335 335 334 333 332 331 331 330 330 329 329 328 328 327 326 324 322 321 321 320 319 319 319 316 315 315 314 314 314 314 313 313 312 313 312 314 315 315 321 316 314 314 316
297 297 294 292 289 292 295 298 300 304 305 301 299 299 301 301 302 300 299 298 295 296 297 298 296 302 313 328 332 335 335 334 334 335 335 333 333 334 333 333 334 334 334 333 333 333 332 331 330 330 330 328 328 328 328 327 327 326 323 321 320 320 320 320 319 316 315 314 314 314 314 314 313 313 312 313 313 313 315 315 315 318 317 315 315 315
298 300 296 291 289 287 287 287 291 294 297 300 302 303 304 303 304 301 299 300 295 303 306 300 299 305 316 326 330 333 333 333 335 335 335 334 333 332 333 333 333 333 332 332 332 331 330 329 330 329 328 328 329 329 328 327 327 325 322 320 320 320 320 319 317 315 315 315 314 314 314 314 315 314 314 315 314 314 315 316 317 316 319 318 317 316
304 304 297 294 290 289 293 295 299 306 299 298 300 302 304 308 307 304 303 301 298 301 305 306 308 312 317 322 326 330 332 332 332 333 332 332 333 333 333 333 332 332 332 331 331 330 330 329 329 329 329 329 329 328 328 327 324 321 320 320 320 320 318 316 315 315 314 314 314 313 313 314 313 314 315 316 314 316 315 315 316 317 317 319 318 317
300 297 302 300 300 299 300 300 302 305 302 305 305 309 312 312 311 309 305 304 308 301 297 307 315 315 317 321 323 327 331 332 333 333 333 333 333 332 332 332 333 332 331 331 330 329 328 328 329 329 329 329 328 328 328 327 324 321 320 319 319 318 317 317 315 314 314 314 313 313 314 314 314 313 313 315 315 314 314 315 316 317 318 318 317 317
299 297 301 304 301 301 301 302 303 306 310 310 310 311 311 312 310 308 309 311 310 298 301 309 315 315 318 323 324 328 331 332 332 333 334 335 334 334 332 331 330 330 330 329 328 329 328 328 328 328 328 328 327 327 327 327 326 323 321 320 318 318 317 317 315 315 314 314 313 313 313 314 315 316 318 316 314 313 313 314 314 317 317 318 319 322
301 298 301 303 303 301 302 302 303 308 310 311 311 311 312 314 314 314 314 316 311 308 312 317 316 316 321 322 324 329 334 333 333 334 334 334 333 332 331 330 330 329 329 329 329 329 328 328 328 328 328 327 327 327 327 327 325 322 320 318 318 318 317 316 315 315 314 314 314 314 313 314 315 313 314 315 313 313 314 316 316 320 317 316 317 318
304 299 316 302 301 298 301 304 305 310 310 308 311 312 312 311 312 316 318 319 320 318 319 318 317 316 323 325 327 331 333 334 333 332 332 333 333 332 331 330 330 329 329 329 329 329 328 328 329 328 327 327 327 327 327 327 323 321 319 319 319 319 318 317 316 315 314 313 313 313 313 313 312 312 313 315 315 314 315 314 316 317 317 317 318 318
304 301 302 301 297 296 299 301 301 310 309 308 307 309 310 310 309 312 312 318 316 314 317 317 314 314 321 328 330 331 332 331 330 330 331 332 333 332 330 330 329 329 329 330 330 330 329 328 328 327 327 327 327 327 327 324 322 319 319 320 320 320 320 319 317 315 314 314 314 313 312 312 312 313 314 316 315 313 314 316 316 316 316 317 317 319
302 301 299 297 293 294 298 303 303 303 303 302 305 310 311 312 312 313 314 318 321 321 316 312 313 319 323 328 327 328 331 330 330 331 331 332 333 332 331 330 330 330 330 330 330 330 329 329 329 328 328 328 327 328 327 324 322 320 320 320 321 322 320 319 317 316 315 314 313 313 313 313 312 312 313 314 314 314 317 314 315 316 317 316 318 320
308 304 301 302 296 296 300 302 303 297 293 296 304 311 314 312 311 310 311 316 319 316 311 314 319 324 325 327 327 327 329 330 331 333 335 334 332 332 331 331 330 331 331 331 331 330 330 331 331 330 329 329 329 330 326 324 321 321 321 322 323 321 319 317 316 316 315 314 315 315 314 314 313 312 313 313 313 315 315 314 314 315 317 318 320 317
309 303 301 304 298 297 299 301 296 291 295 306 313 316 316 314 314 313 315 321 325 326 326 325 324 324 326 327 329 330 331 332 334 334 334 336 335 333 332 331 331 331 330 330 330 330 330 331 331 330 330 329 330 328 325 323 323 322 322 323 321 320 318 317 317 316 315 316 317 316 314 314 313 313 313 312 313 314 314 315 317 317 319 318 317 316
305 303 302 302 301 299 296 295 290 294 304 313 316 317 318 317 315 313 312 316 322 326 326 324 324 325 326 326 328 330 330 331 332 333 334 336 337 335 332 331 331 331 331 331 330 330 331 331 331 330 330 332 330 327 325 323 324 322 321 322 320 319 319 318 317 316 315 317 318 316 315 315 314 315 314 313 313 314 314 316 317 317 319 319 316 318
308 307 302 300 304 297 297 295 297 305 304 306 309 310 310 309 312 310 305 311 320 325 326 323 322 325 326 326 328 329 330 330 327 327 333 335 335 337 335 333 333 333 333 333 333 332 333 333 332 332 332 331 328 326 325 325 324 322 321 320 320 319 319 318 316 316 317 317 319 318 317 317 316 316 314 314 314 314 314 316 317 316 321 316 317 317
309 306 304 299 303 301 298 295 294 294 294 299 307 312 317 317 317 316 313 310 317 325 326 325 323 324 326 327 327 328 329 325 319 323 330 334 336 336 337 336 335 335 335 334 334 334 333 333 333 333 332 329 327 326 326 325 324 322 320 320 319 319 318 317 316 317 318 316 320 320 318 318 318 317 317 314 315 315 316 317 316 317 324 314 315 315
310 308 305 302 299 302 297 293 293 293 296 303 308 313 318 319 321 321 309 304 313 323 325 326 324 325 326 327 327 328 324 319 318 323 330 334 335 336 334 335 335 335 335 334 333 332 333 333 332 332 331 328 326 326 326 326 323 320 320 320 319 318 317 316 316 317 318 319 322 322 320 319 318 319 317 315 314 315 315 316 318 319 321 315 315 316
307 303 301 302 300 299 296 293 296 301 301 310 313 316 319 322 319 306 296 298 311 324 326 325 325 325 325 328 329 326 323 318 320 325 332 335 335 335 334 333 333 334 335 336 335 334 333 334 333 331 329 326 326 327 326 325 322 321 319 319 317 316 315 316 318 320 320 321 323 322 319 319 321 319 318 315 315 315 317 319 319 318 317 316 316 316
305 305 302 299 298 302 303 299 303 305 313 318 317 318 321 323 311 298 293 301 316 324 327 326 326 326 326 328 328 323 323 324 326 332 335 335 334 334 334 335 334 334 333 334 334 336 333 333 332 330 328 327 327 327 326 324 321 320 320 318 316 315 317 317 319 321 322 323 323 322 320 320 319 320 319 317 316 317 322 320 317 316 315 316 316 315
304 306 306 305 300 300 299 298 298 302 308 314 318 320 323 315 301 300 308 316 323 326 328 327 325 325 327 327 325 324 325 329 334 335 334 334 333 333 333 333 334 334 335 336 336 334 333 333 332 331 329 328 327 327 326 324 322 320 319 317 315 316 319 319 319 319 320 322 322 321 320 320 319 321 320 319 318 318 319 318 317 317 316 316 315 315
304 302 302 302 305 304 302 298 297 293 311 321 320 317 321 310 306 312 320 325 329 328 328 327 327 327 327 324 326 328 330 331 332 331 332 333 333 333 332 332 332 332 333 333 333 334 334 332 331 331 330 329 328 327 325 323 321 320 320 317 317 318 319 319 319 318 320 321 320 322 320 320 322 323 321 320 320 314 314 315 317 318 319 316 316 315
312 303 303 305 308 300 299 299 298 302 308 324 318 308 313 318 318 325 323 322 329 329 327 326 326 327 327 327 328 329 329 328 329 330 331 332 333 334 332 332 332 332 333 334 334 333 333 331 330 329 330 330 328 326 324 323 322 321 318 317 317 319 321 319 318 318 319 322 320 321 321 320 321 319 317 320 319 317 314 314 316 316 318 316 316 314
310 308 309 304 310 308 305 306 313 317 321 322 324 318 322 328 330 329 325 323 327 328 330 327 327 328 328 329 329 328 327 328 327 330 329 331 332 332 331 330 330 331 332 332 332 332 331 329 328 327 327 326 325 324 323 323 322 321 318 317 320 321 320 318 317 318 319 319 318 320 319 318 318 318 316 316 320 317 318 316 314 314 314 314 314 314
317 320 317 313 310 317 319 319 321 321 322 325 329 327 328 331 332 331 329 325 328 328 331 328 329 328 330 330 327 327 328 329 328 329 330 331 332 331 331 330 330 332 332 331 331 331 331 329 328 327 325 324 323 322 322 322 322 320 318 319 321 319 318 317 317 318 318 318 316 318 318 316 316 317 317 317 317 318 317 317 317 317 314 313 314 313
315 317 315 310 316 309 303 317 320 320 323 325 327 330 332 332 332 333 331 330 330 331 331 331 329 330 330 329 328 328 328 329 328 329 329 329 330 329 329 328 329 330 329 329 330 330 328 328 326 325 324 321 320 319 320 321 320 320 319 319 319 318 317 317 317 318 317 317 317 317 316 315 314 315 316 316 317 318 320 319 317 317 320 318 314 314
311 321 312 314 312 305 307 316 321 323 323 325 326 327 327 330 331 331 332 332 332 332 331 330 330 330 331 329 329 328 328 328 327 327 328 328 329 328 328 328 328 329 330 330 330 329 328 327 324 322 321 320 319 320 321 320 319 320 319 318 319 318 317 319 317 316 315 315 318 318 316 315 324 323 315 316 317 316 315 316 319 317 318 317 317 313
315 318 307 312 310 314 318 320 321 320 323 327 329 329 329 329 329 329 330 331 331 332 332 332 331 330 330 329 330 328 327 328 328 328 328 328 327 328 328 328 329 329 329 329 329 328 325 323 321 321 321 320 320 320 320 318 320 320 318 318 319 318 318 318 321 318 316 315 315 316 321 319 318 319 318 316 317 317 317 316 317 318 318 318 317 317
314 310 313 310 308 309 309 312 317 311 312 321 327 329 330 331 329 329 329 330 330 329 331 331 331 331 330 330 330 329 327 327 328 329 327 327 327 327 328 328 329 328 328 329 329 325 323 323 321 321 321 320 320 320 319 318 320 320 319 319 319 319 319 321 319 316 314 314 314 315 317 319 317 317 319 317 316 317 318 328 323 318 318 318 332 329
312 315 312 308 307 306 313 320 321 318 318 321 327 330 330 331 329 328 327 328 330 331 329 328 328 329 329 329 330 329 327 327 328 329 328 327 327 328 328 328 327 327 328 328 325 322 321 320 322 321 321 320 321 320 320 318 320 319 319 319 320 319 319 319 319 317 314 317 317 319 319 317 316 316 315 316 315 317 318 318 320 311 312 318 329 321
Wind_Speed
2 1 3 6 7 10 11 8 9 7 6 7 6 3 6 7 6 8 12 12 12 5 6 13 7 7 9 14 14 14 12 9 11 13 11 12 9 7 9 12 13 13 14 13 11 10 12 12 11 10 9 8 8 7 9 9 8 7 6 6 5 3 2 3 4 4 5 6 5 5 5 6 5 6 5 5 4 4 4 4 5 4 4 4 4 4
1 1 5 8 10 11 12 13 10 5 7 10 8 5 7 7 5 9 13 13 9 8 6 2 6 9 13 11 11 9 11 10 14 14 14 13 11 10 13 13 15 15 7 4 8 11 12 11 11 9 8 9 10 7 8 8 7 6 6 5 4 3 3 3 3 3 4 3 5 6 5 5 5 6 6 5 4 4 4 4 4 4 4 4 4 4
4 6 8 9 10 9 9 9 7 9 9 5 6 8 6 7 5 3 12 14 12 9 6 7 8 8 10 9 5 9 7 8 14 18 18 17 14 11 11 14 12 7 5 11 9 12 13 13 11 9 8 8 8 8 8 7 8 7 6 5 4 4 4 3 3 4 4 2 3 5 4 6 5 3 4 4 3 3 4 5 5 5 5 5 4 3
5 5 11 12 8 8 9 9 10 10 9 6 4 3 7 6 3 1 8 21 10 7 7 7 7 2 1 2 1 7 10 10 9 16 17 18 17 15 15 15 14 7 7 9 11 13 13 13 11 10 9 8 8 7 8 8 8 6 6 4 5 5 3 3 4 3 3 4 4 4 5 6 6 5 4 4 3 4 5 6 5 6 6 6 5 4
9 6 5 8 9 6 7 7 6 3 8 9 9 5 4 3 7 8 8 6 8 2 4 12 6 1 0 6 4 10 11 11 6 8 11 12 13 15 12 11 6 10 10 11 12 12 12 12 11 11 9 8 9 8 8 8 7 6 7 5 5 3 3 3 4 5 4 6 7 7 8 8 8 6 5 4 4 3 3 5 5 6 5 5 4 4
8 10 6 8 10 8 6 11 8 4 7 7 8 9 9 8 7 5 11 12 8 2 1 11 2 3 5 4 7 10 6 9 8 14 13 12 8 8 11 10 8 7 8 13 15 14 13 12 10 10 11 10 9 9 7 7 7 7 6 5 4 3 3 4 4 3 4 4 6 7 7 7 6 6 4 4 2 3 4 4 3 4 4 4 4 4
7 7 8 9 12 8 6 9 7 3 7 4 6 4 4 8 7 2 14 9 5 6 8 8 10 6 2 6 6 8 9 10 3 9 13 13 11 10 11 9 8 10 9 8 11 12 13 12 12 11 11 11 10 8 8 7 8 8 7 5 4 5 4 4 3 3 5 5 5 5 6 6 6 7 4 3 4 5 6 6 6 4 4 3 4 5
4 7 8 10 11 12 6 9 5 7 6 5 6 6 0 2 4 4 10 10 6 1 3 10 4 6 2 6 4 9 11 8 8 11 15 15 13 12 10 9 9 9 11 12 13 13 14 13 13 12 10 10 10 9 9 8 8 8 7 6 6 4 5 4 5 5 5 6 5 6 6 6 6 7 6 5 5 6 6 7 5 4 5 4 4 5
3 1 3 4 5 6 7 9 7 5 3 6 7 1 2 2 2 2 3 1 3 10 3 8 2 4 1 4 2 9 10 8 13 16 18 18 15 13 12 11 10 11 11 13 13 13 12 11 11 11 10 10 11 10 10 8 8 7 7 7 6 6 6 5 6 7 6 6 6 7 7 7 5 6 6 5 6 7 7 8 4 5 4 4 4 5
2 4 6 7 4 6 8 10 8 7 7 4 5 5 2 1 1 1 1 2 0 1 5 12 5 4 1 4 0 2 7 12 16 18 20 19 18 15 13 12 10 10 8 7 10 10 10 10 11 11 12 11 10 9 9 8 8 8 7 8 8 7 6 6 7 8 7 7 7 7 6 8 7 7 6 6 7 6 5 6 4 4 5 5 5 5
8 9 6 4 4 5 5 5 4 4 9 4 3 5 4 5 1 2 4 3 3 1 5 10 12 9 3 6 12 11 11 17 15 9 11 12 8 9 11 13 11 11 10 8 9 9 10 10 12 12 13 11 10 9 10 9 8 8 8 8 9 6 6 6 7 8 8 7 7 8 8 9 9 7 7 7 6 6 6 6 5 4 4 4 4 5
4 5 4 3 8 4 5 6 5 2 2 1 2 1 3 4 6 3 3 4 2 3 7 8 10 9 4 6 7 10 10 14 15 18 17 17 16 15 12 12 10 11 11 10 11 12 13 12 11 11 12 12 11 10 9 9 8 8 8 9 10 7 6 6 7 8 8 8 8 8 9 9 7 7 7 8 7 6 6 4 4 3 4 4 4 4
4 8 5 7 4 9 3 6 8 2 1 4 3 6 4 2 3 3 4 3 1 1 6 2 8 1 6 6 11 18 14 8 13 15 17 18 18 16 13 12 11 11 12 12 12 13 12 13 13 13 12 12 11 10 10 9 8 9 9 10 10 7 7 7 7 8 8 8 8 8 9 8 7 7 7 7 7 5 5 4 3 3 2 3 5 5
7 6 5 5 7 4 6 7 3 6 2 2 1 2 2 1 1 1 3 1 2 7 8 2 6 2 3 6 9 14 18 15 13 12 9 14 17 17 14 12 12 12 13 12 12 13 12 12 12 12 12 11 10 10 10 9 9 9 9 10 11 8 7 7 8 8 9 8 7 7 8 7 7 7 7 6 6 5 4 4 3 2 1 1 2 3
2 6 8 4 3 5 4 8 10 7 3 6 3 4 6 5 2 2 3 4 5 7 6 1 4 3 2 2 2 16 20 12 3 5 5 5 10 12 11 11 12 13 11 11 12 12 12 12 13 11 11 10 11 11 10 8 9 9 9 10 11 9 7 8 7 7 7 6 7 7 7 7 7 7 7 6 5 5 4 3 3 1 0 2 3 4
7 6 8 5 8 4 6 7 6 4 2 1 2 7 4 6 6 4 6 3 3 2 4 3 1 3 3 4 2 3 2 1 1 4 10 11 13 13 12 12 12 12 12 11 12 12 12 12 11 10 10 11 11 10 9 10 9 9 9 9 9 9 8 7 7 6 7 7 6 7 7 7 7 7 6 6 4 3 3 3 2 1 3 4 5 4
1 4 6 5 5 8 13 7 5 7 4 3 4 4 10 7 7 1 2 1 1 4 6 2 1 3 5 4 6 4 7 4 6 7 10 12 14 13 11 11 11 12 12 12 11 12 13 12 11 10 11 11 11 10 10 10 9 11 11 10 9 8 7 8 7 7 8 8 8 7 8 7 6 7 7 6 4 4 3 3 2 3 4 5 5 4
3 6 6 4 11 9 13 10 5 8 8 3 1 9 2 2 4 4 4 1 0 3 5 0 4 2 3 2 3 5 6 4 6 8 8 9 12 11 9 10 11 12 12 12 12 12 12 12 12 11 10 11 11 11 9 10 9 9 10 11 10 8 8 7 7 7 8 9 9 8 7 6 6 6 6 5 4 3 3 3 3 3 5 4 4 4
5 5 8 5 8 8 3 8 2 3 7 9 8 4 4 0 0 2 3 0 0 2 2 3 3 1 4 2 3 6 9 6 5 6 10 11 9 11 11 11 11 12 12 13 13 13 12 12 12 12 12 11 13 12 9 8 9 10 10 9 9 9 9 8 7 6 6 6 6 6 7 7 6 6 5 4 4 3 3 3 3 3 2 4 4 4
2 3 7 3 4 2 3 5 6 4 6 2 4 2 1 5 2 1 5 4 2 3 2 1 1 4 4 3 4 7 8 11 9 8 9 11 12 13 13 13 14 13 13 13 13 12 12 12 13 14 14 14 15 13 12 12 9 11 10 10 9 8 8 8 8 7 7 6 7 7 6 5 5 5 6 5 4 3 3 3 4 3 3 4 4 4
1 2 3 6 6 5 2 1 1 7 7 3 1 3 1 1 3 3 0 3 4 3 4 5 1 5 5 3 2 4 9 13 14 12 10 10 11 12 14 15 14 13 13 13 13 13 13 13 13 12 13 14 13 12 11 11 12 11 10 11 10 11 10 9 7 7 6 7 7 8 7 6 6 7 6 5 3 3 2 3 3 2 1 2 3 2
1 0 4 3 4 1 1 3 2 6 6 6 8 9 8 4 3 2 8 3 2 1 3 5 5 5 4 0 3 5 11 12 11 15 10 7 8 10 9 11 13 13 13 13 14 13 13 13 12 12 12 12 12 12 12 11 11 11 11 10 10 9 9 9 7 7 6 6 7 8 7 5 5 6 5 5 4 4 3 3 3 1 1 2 2 5
4 3 1 2 3 4 6 8 5 3 5 7 10 9 7 4 6 3 4 6 2 3 6 3 6 2 2 1 2 3 10 8 10 11 12 10 10 10 9 10 10 12 14 14 14 13 12 12 12 13 14 14 13 12 12 11 11 11 10 10 9 10 9 9 8 7 6 6 7 7 6 7 6 5 5 4 4 4 3 2 2 1 3 3 3 3
4 2 1 6 6 4 5 6 3 4 2 2 2 2 5 6 9 9 7 6 4 4 2 3 3 3 2 3 3 5 9 10 9 12 15 11 10 11 12 12 12 13 12 12 11 11 12 12 11 12 12 11 11 12 11 10 10 10 9 10 9 10 10 9 8 7 7 6 6 6 7 7 7 6 5 4 4 4 3 2 0 1 2 1 1 4
1 2 5 2 5 8 9 9 5 7 2 0 3 3 3 2 1 2 5 2 2 4 2 6 4 3 1 3 6 11 13 13 12 9 13 14 10 12 12 11 10 12 13 13 12 11 11 12 13 12 11 11 11 10 10 10 10 10 9 9 9 10 10 8 7 8 7 7 6 6 6 6 6 5 4 4 2 3 1 0 1 1 0 2 3 3
5 1 2 1 1 1 4 4 5 6 6 7 3 2 3 2 6 4 4 3 5 3 5 3 1 4 4 3 7 10 12 11 10 11 8 10 14 13 11 11 11 12 12 13 12 12 13 12 10 9 9 10 10 10 10 9 9 9 9 10 9 10 9 8 8 7 7 6 6 5 4 4 4 4 4 4 3 4 3 3 3 1 3 3 5 4
1 1 4 5 3 4 5 5 8 1 4 7 9 7 2 2 5 8 5 6 3 2 4 3 7 5 2 4 6 8 11 14 12 11 12 10 10 10 11 11 11 11 12 14 13 11 10 10 11 10 11 10 10 10 9 9 9 9 10 10 9 9 9 9 9 8 8 7 6 5 4 3 3 3 4 4 4 2 2 1 1 3 2 2 4 4
2 2 1 6 3 4 4 4 6 5 4 6 8 10 10 5 5 8 7 4 4 7 3 2 10 11 8 4 7 8 8 10 11 10 11 10 11 11 11 11 12 11 11 10 11 13 13 12 10 10 10 10 9 9 9 8 9 10 11 10 9 9 9 8 9 8 8 7 6 5 3 3 2 1 2 3 4 4 4 4 3 3 2 3 4 3
3 2 3 0 2 4 4 3 2 4 7 7 9 10 10 9 10 9 4 5 3 3 6 4 7 11 12 11 11 12 14 14 14 12 12 13 12 11 11 11 11 12 11 12 11 12 12 11 9 9 9 9 10 10 9 9 9 9 8 9 10 10 10 9 9 8 8 7 7 5 4 4 3 2 3 4 4 3 2 1 0 2 2 2 3 2
2 1 3 2 1 4 7 4 4 7 7 12 10 9 9 10 8 6 3 0 6 5 7 11 6 6 4 4 6 9 8 11 10 9 10 12 13 12 11 10 11 12 13 12 13 12 12 12 11 11 10 9 11 10 8 7 8 9 10 11 10 10 9 8 8 9 8 8 6 4 4 4 4 4 3 2 3 2 1 1 2 2 1 3 2 0
2 2 3 2 1 2 5 4 6 7 11 10 9 11 10 8 7 6 3 5 9 9 7 7 4 1 2 4 8 9 10 9 11 12 12 12 12 12 12 12 10 12 13 12 12 12 12 12 10 9 10 11 11 11 8 7 9 10 10 11 11 10 9 8 8 8 8 8 6 5 4 4 4 4 2 0 1 2 2 2 0 1 3 2 1 1
4 2 3 2 1 3 3 5 3 7 10 8 5 5 6 8 7 1 2 3 4 5 6 7 4 3 2 8 10 11 13 14 14 12 10 10 12 13 13 13 11 11 13 12 11 10 9 13 13 11 11 11 11 9 7 8 10 11 11 11 11 10 8 8 9 9 8 8 7 5 5 4 4 3 1 1 3 3 3 3 1 0 1 1 1 1
2 2 2 2 3 2 4 3 3 7 7 7 2 3 4 4 4 2 1 2 3 12 9 7 8 4 7 9 13 8 12 11 12 12 10 11 13 13 14 14 13 11 14 14 13 12 11 11 12 12 11 11 10 8 8 10 11 11 11 11 10 9 8 9 10 10 9 8 8 6 5 4 4 4 2 3 4 3 2 2 0 1 3 3 3 1
2 4 2 1 2 3 6 5 1 5 6 1 3 3 2 6 7 6 2 1 1 1 3 5 5 7 9 8 14 12 12 15 15 12 14 16 14 13 11 12 12 13 12 11 12 12 11 9 8 9 10 10 9 8 9 10 11 9 9 10 9 10 9 9 9 10 9 8 7 7 6 5 4 4 4 4 4 1 2 3 1 2 3 2 1 1
3 2 2 1 2 1 4 8 8 5 2 6 2 2 2 4 7 9 4 2 4 6 8 9 8 9 9 9 12 14 9 6 7 11 8 9 12 13 14 13 12 13 14 13 12 11 12 11 9 9 8 8 8 8 9 9 9 9 9 9 10 9 9 9 9 8 8 8 8 7 6 5 4 5 4 4 3 3 4 2 1 3 3 3 2 2
3 5 3 2 2 2 4 3 3 2 3 1 0 2 5 7 7 9 5 3 3 3 9 7 5 4 5 5 4 5 8 7 6 4 7 8 10 12 12 11 12 13 12 11 13 12 11 12 12 11 10 7 8 8 9 9 9 10 9 8 10 9 10 9 8 7 6 7 7 8 6 7 5 5 4 4 4 4 4 2 4 4 3 2 1 0
6 3 5 1 1 3 2 2 1 1 3 4 2 2 2 1 2 3 3 2 1 2 7 7 4 3 5 4 7 7 8 9 6 2 5 9 9 12 15 14 14 14 16 16 17 16 14 12 11 11 10 9 9 10 10 9 8 9 9 9 8 9 9 8 8 7 6 6 6 7 6 6 6 5 5 4 4 4 4 3 4 4 3 2 1 0
8 6 3 5 2 4 2 1 2 1 1 5 6 6 4 6 3 6 6 0 3 1 4 11 8 6 6 5 8 9 9 8 5 5 5 7 12 11 10 12 12 10 11 11 9 10 12 11 11 11 11 10 10 10 10 10 10 10 10 9 9 9 8 8 7 6 6 6 5 5 6 5 6 6 5 5 5 6 5 4 4 4 3 3 3 2
3 4 8 8 4 2 3 3 2 3 4 6 9 8 10 5 1 2 6 1 3 4 4 8 9 7 10 11 9 10 9 8 8 7 6 6 10 12 12 11 12 11 12 13 14 13 13 11 13 13 10 11 11 9 9 9 10 10 9 9 9 8 8 7 6 5 6 6 5 5 5 5 5 6 6 6 6 5 4 4 5 3 2 3 3 3
8 4 4 5 5 4 6 4 2 2 2 3 5 5 7 8 2 4 2 3 2 2 4 5 10 9 5 7 10 9 9 8 8 7 4 9 12 13 15 14 13 12 11 10 10 12 14 13 11 12 13 13 12 11 11 9 9 9 9 8 8 8 7 7 7 6 6 6 6 6 5 4 4 4 5 6 5 4 3 4 3 4 4 4 3 4
5 4 6 2 2 4 7 1 1 2 4 3 4 6 5 2 4 2 3 3 2 4 6 6 8 7 8 8 8 8 2 3 2 1 8 10 12 10 11 13 13 14 14 12 11 10 10 11 13 13 14 13 13 12 11 9 9 9 9 8 7 8 8 7 6 6 6 6 6 5 5 4 4 5 5 5 5 4 3 4 5 4 4 4 4 3
4 2 3 3 5 3 2 4 3 4 5 2 4 4 5 1 0 2 2 2 2 3 5 7 8 5 5 6 4 4 5 2 0 1 9 11 14 14 15 15 14 11 9 9 11 10 10 11 10 10 12 11 13 12 10 10 10 9 8 8 8 8 7 6 5 5 6 6 6 6 5 5 4 4 5 4 3 3 4 4 4 4 4 5 4 4
2 3 0 1 1 2 3 4 1 0 1 2 4 2 3 2 3 3 1 1 2 6 7 5 7 8 10 6 5 7 6 5 8 8 8 12 15 15 15 15 16 16 14 13 12 9 9 9 9 10 10 9 10 9 9 10 10 8 8 8 9 7 6 7 6 6 5 6 6 5 5 5 5 4 3 3 4 4 4 4 4 4 4 4 4 4
1 4 1 1 2 2 0 1 1 3 1 1 2 1 2 2 4 5 5 2 1 4 6 6 3 6 8 11 10 7 7 9 6 7 4 4 13 14 14 13 13 13 13 12 13 13 12 9 8 8 9 8 7 8 8 9 9 8 8 9 6 6 6 6 5 6 5 5 5 5 4 4 4 4 3 4 4 4 4 4 4 4 4 3 3 3
2 3 5 4 3 2 2 4 3 3 1 3 0 3 1 1 2 2 4 4 5 2 3 6 8 7 8 10 10 12 8 6 10 10 11 10 13 15 15 14 14 15 14 13 13 12 11 11 10 10 10 9 9 8 9 9 10 9 10 6 5 6 7 6 5 5 5 5 5 5 4 4 4 4 4 4 4 4 4 4 3 4 4 3 3 3
1 1 1 5 0 0 1 0 1 3 3 3 6 2 3 2 2 2 3 4 1 4 7 9 9 10 9 9 11 4 8 9 8 6 3 6 11 12 12 12 12 12 12 11 10 11 11 11 11 12 12 9 11 9 7 8 10 10 8 5 6 7 8 7 6 5 5 5 4 5 4 4 4 5 5 5 4 5 5 5 5 6 6 4 4 4
2 1 1 1 0 3 1 2 5 3 1 4 5 5 5 4 2 1 3 4 5 6 4 4 9 9 9 6 9 10 8 7 9 7 4 6 11 12 13 14 14 14 14 13 12 10 9 9 11 11 12 12 8 8 7 7 7 9 6 7 7 7 7 7 6 5 5 5 5 4 4 6 6 5 5 4 4 5 5 6 6 4 4 4 4 4
1 0 2 1 2 1 3 3 2 3 4 4 4 4 3 2 3 4 2 2 4 3 5 6 7 7 6 7 8 11 9 8 11 10 9 8 10 12 13 14 13 11 11 13 12 10 11 10 9 9 9 9 8 7 7 7 7 7 8 7 7 7 7 6 5 6 5 5 5 6 6 6 8 8 6 6 6 6 6 5 4 5 6 6 6 6
2 2 2 1 1 1 2 1 2 5 6 4 3 2 1 3 3 4 4 4 4 6 6 5 5 8 6 7 6 9 10 6 7 9 9 8 9 10 12 12 12 13 13 13 13 13 12 10 10 10 11 9 7 8 7 6 7 7 8 7 7 8 7 7 5 5 5 4 4 5 5 6 6 6 6 6 5 6 6 6 6 7 7 6 6 6
2 0 0 4 4 0 3 2 3 3 1 0 1 3 3 1 4 6 4 5 5 6 6 7 4 4 5 8 9 10 11 8 6 6 9 9 10 11 11 12 12 12 11 10 9 8 11 12 12 11 11 9 8 8 8 7 7 7 8 7 7 8 8 6 6 5 5 4 4 5 5 5 6 5 6 6 6 6 6 8 10 8 6 7 8 11
2 3 3 3 6 4 6 4 4 4 3 3 4 3 3 2 4 6 5 4 3 4 6 7 6 5 6 5 7 10 10 10 9 6 9 9 10 11 12 13 11 9 10 9 9 9 10 11 12 11 11 10 8 8 8 7 7 7 7 7 7 8 7 6 6 5 5 4 4 5 5 5 5 6 6 6 6 6 6 7 7 9 11 10 9 7
Wind_Direction
161 171 199 229 237 245 260 255 225 218 218 217 233 178 214 211 229 188 184 176 184 145 199 192 178 178 190 189 186 173 167 140 135 150 166 188 182 160 152 168 178 183 192 197 173 135 120 121 125 126 129 131 125 119 126 129 131 134 138 135 138 143 122 110 107 118 126 118 108 105 116 118 120 110 99 83 82 83 87 84 77 75 75 69 66 53
71 212 236 226 241 247 255 263 274 251 213 228 228 212 236 201 242 192 181 174 175 155 232 184 139 176 194 196 181 162 147 131 136 148 167 183 183 172 165 174 187 190 191 121 80 104 111 121 127 127 129 133 130 131 130 131 130 130 128 120 123 116 100 115 135 138 120 131 146 140 144 129 123 114 106 98 88 93 79 74 72 71 63 61 59 51
261 226 248 241 232 246 259 270 275 278 270 224 224 226 231 241 237 16 151 170 188 163 224 167 161 183 200 198 177 168 129 135 151 155 168 176 186 177 178 179 190 190 120 82 106 119 130 133 133 130 130 130 132 133 126 127 123 119 107 110 114 109 108 111 129 113 120 117 133 132 140 123 106 83 109 112 106 86 79 66 65 59 48 44 41 33
255 275 248 250 248 249 270 270 274 285 287 277 223 229 220 228 187 9 168 186 175 170 194 175 112 43 301 285 103 48 103 151 154 157 172 180 182 181 184 184 185 148 100 119 127 134 138 138 137 133 132 134 128 125 126 131 124 113 114 120 114 113 104 112 103 99 109 109 98 80 94 96 113 126 101 82 69 66 69 66 64 58 55 51 48 37
210 230 228 240 255 252 270 288 301 288 284 282 271 210 223 238 227 159 195 126 151 282 80 93 70 17 336 207 114 85 124 129 142 151 186 204 190 183 184 191 141 124 132 124 131 137 139 140 142 141 137 134 130 135 138 139 134 129 130 125 119 113 108 101 101 114 112 99 88 92 87 93 92 77 83 80 54 48 76 78 63 63 57 52 52 37
254 246 253 271 268 262 272 282 275 257 270 274 250 233 225 211 216 219 139 137 173 30 227 138 81 237 257 245 143 129 130 138 181 163 193 202 212 190 191 184 109 125 128 138 143 144 144 141 140 136 137 137 135 139 141 136 130 128 129 127 115 105 100 98 94 86 89 99 116 114 112 105 99 98 98 111 123 57 59 80 77 56 45 52 54 38
214 230 211 229 259 263 250 258 259 227 253 247 267 222 221 230 212 144 140 144 135 181 217 162 151 234 257 192 170 141 156 152 202 195 192 206 206 203 199 178 142 137 132 132 137 144 144 147 143 142 140 139 137 137 133 128 127 126 128 122 118 116 108 96 84 91 103 95 108 113 115 116 113 107 82 98 89 97 89 83 73 62 46 43 53 39
197 221 211 223 236 255 257 267 250 209 222 259 250 272 47 319 229 174 148 177 186 282 133 186 113 136 176 248 171 143 153 170 181 214 206 208 203 200 202 185 153 148 149 148 152 154 151 149 146 143 137 137 137 135 129 127 126 129 128 124 121 108 90 86 88 81 99 111 108 101 102 105 107 107 116 102 94 84 89 79 65 53 40 36 41 44
210 275 234 253 243 245 237 235 229 214 199 236 276 0 216 214 254 274 360 183 136 119 167 216 122 63 283 267 70 142 135 201 206 204 210 209 202 196 197 193 163 151 157 155 155 156 151 142 134 132 130 129 131 134 132 130 127 125 120 114 103 90 93 87 87 87 79 92 98 102 106 100 90 94 86 81 70 78 80 82 58 52 31 29 33 40
279 220 210 224 201 238 243 255 258 253 271 276 258 218 204 140 127 18 161 264 25 104 193 217 174 124 269 279 285 192 176 200 219 208 210 206 198 190 191 193 158 143 150 154 148 139 131 129 128 125 124 127 130 129 126 125 124 123 120 111 100 97 93 94 88 86 81 79 88 91 94 94 83 87 83 76 76 75 78 81 67 47 38 26 28 19
249 275 216 193 207 219 243 248 242 244 246 243 6 337 351 9 19 97 91 107 69 237 252 205 187 143 191 241 199 168 205 203 212 218 218 220 202 200 196 188 163 153 151 145 131 125 122 125 126 128 126 126 125 127 128 128 127 125 113 106 101 100 95 90 90 88 82 78 81 90 93 97 101 97 97 91 77 78 73 73 55 47 35 31 19 13
286 276 281 204 184 211 212 276 271 270 187 135 45 8 16 343 358 31 348 41 110 266 258 235 177 149 137 264 242 230 223 208 181 208 201 203 194 195 188 184 160 149 147 139 133 130 130 128 128 126 126 129 129 128 130 130 126 116 115 113 105 95 91 89 88 83 80 86 87 91 93 93 95 99 98 96 95 89 86 83 76 46 49 16 7 21
290 256 239 270 189 181 207 239 281 333 14 80 90 41 73 275 25 317 5 328 201 192 248 156 125 10 243 223 206 208 229 230 198 200 202 193 192 188 181 170 149 149 147 144 139 138 141 141 140 136 132 130 133 134 135 134 125 122 120 114 107 100 98 93 90 89 93 93 94 97 96 98 99 95 96 96 95 96 101 103 96 69 39 354 6 2
276 281 289 278 309 217 175 204 273 291 307 131 214 130 81 48 17 258 272 233 308 300 268 231 159 171 262 277 207 200 217 216 208 208 196 181 177 177 169 157 147 151 150 145 142 144 145 145 142 137 135 134 133 136 136 129 125 124 118 114 108 108 102 99 94 97 98 99 102 100 101 100 97 94 93 96 103 107 116 118 111 120 98 2 330 1
270 323 283 195 259 248 188 197 193 191 181 222 135 133 176 154 157 230 217 227 211 220 276 344 135 237 112 243 243 196 207 214 194 199 178 147 152 151 141 133 135 140 144 143 146 147 147 145 142 140 137 136 138 139 132 123 125 122 117 114 113 109 104 99 97 92 92 93 95 100 100 98 97 97 94 95 103 114 106 103 108 152 228 18 8 54
216 226 257 200 213 194 213 224 199 126 176 252 154 90 84 226 145 220 201 179 240 316 323 348 159 179 192 259 275 158 155 92 186 131 111 108 119 133 138 140 141 143 143 146 141 140 141 142 141 139 138 140 139 134 121 126 129 120 117 114 114 114 109 99 91 85 93 94 96 96 97 99 99 98 95 95 95 105 124 130 127 37 25 54 74 73
160 264 251 263 257 233 226 203 214 137 205 262 117 203 218 172 139 143 349 282 125 39 265 194 26 309 305 356 357 57 77 32 56 86 104 119 128 133 137 135 137 141 144 147 143 142 141 142 144 142 142 141 133 125 129 135 131 126 122 117 112 107 99 95 94 94 97 101 97 97 102 106 105 107 106 109 109 112 98 90 63 39 37 65 69 78
151 244 284 316 296 268 228 196 160 179 143 91 141 237 266 99 121 141 219 343 186 190 259 124 167 176 118 225 325 79 89 43 57 64 87 103 121 127 131 133 138 142 143 140 137 138 141 143 144 142 140 134 123 115 125 127 124 121 120 120 116 106 98 94 97 98 100 103 104 106 105 102 105 110 111 109 109 93 73 42 39 36 55 70 77 90
153 290 286 238 224 287 80 113 149 222 152 168 191 194 142 251 281 312 97 207 58 251 262 353 327 256 163 235 160 164 149 140 103 105 114 122 127 131 131 130 131 133 136 140 141 143 145 146 145 143 136 123 114 123 127 119 121 120 118 115 113 114 113 110 103 100 96 100 107 113 118 118 114 107 103 102 101 86 72 49 41 60 74 79 89 92
116 169 291 314 357 323 28 84 174 236 318 351 1 341 217 105 162 162 190 183 148 249 84 306 27 211 227 213 216 178 155 138 138 138 147 148 152 150 143 143 143 143 144 143 143 145 147 144 144 142 138 131 135 136 138 135 132 125 119 112 113 112 111 106 102 100 98 100 106 110 105 96 95 94 98 105 107 105 96 69 88 106 74 60 64 72
277 153 253 280 314 23 352 19 179 204 203 253 319 298 289 197 209 132 263 143 179 183 179 156 225 269 263 216 209 190 157 158 157 157 159 160 156 153 150 147 146 142 143 144 145 146 144 142 142 139 133 136 135 138 136 137 136 131 125 125 127 124 118 111 112 105 105 99 98 104 107 109 105 97 95 91 93 79 53 51 81 94 132 73 69 86
163 183 203 311 9 27 256 237 182 171 169 189 199 222 200 180 172 238 269 341 101 176 211 140 225 275 273 130 232 185 163 162 167 151 150 133 131 138 141 142 140 140 141 143 144 142 141 141 139 133 134 137 140 140 138 141 138 134 132 131 127 121 120 120 114 110 104 96 94 96 99 97 99 101 98 100 95 90 85 95 103 118 85 83 110 120
158 173 216 278 220 217 226 255 260 216 187 207 186 224 195 155 117 122 241 275 326 245 110 133 129 267 238 316 351 184 160 149 136 130 123 127 135 143 144 140 135 139 142 144 143 142 143 142 139 140 142 144 143 140 142 143 140 136 132 130 131 129 129 122 119 110 104 98 92 93 97 105 111 113 112 116 120 122 137 130 102 53 77 68 76 116
102 56 24 307 309 303 305 291 311 354 19 22 266 237 151 194 183 188 191 192 167 319 49 12 57 249 291 339 355 81 92 103 119 132 132 134 140 144 146 144 141 141 138 136 139 141 142 138 136 139 143 144 141 144 150 146 138 132 133 136 135 128 124 119 115 113 106 101 100 99 96 107 122 123 138 142 159 159 179 174 292 351 356 346 114 130
63 288 113 354 357 340 345 348 0 325 41 63 256 254 197 182 73 110 82 35 69 337 230 125 185 262 276 12 92 102 108 117 127 138 140 135 136 142 146 146 143 139 139 140 142 141 138 140 145 149 149 146 145 149 150 140 137 138 141 140 133 127 125 120 117 115 112 110 106 105 109 112 124 135 146 157 175 180 162 23 0 314 324 28 25 7
99 186 85 58 230 357 335 338 308 328 285 273 276 307 295 131 120 77 65 24 81 319 80 95 147 265 277 45 106 116 121 122 134 134 130 134 141 143 144 145 143 145 148 144 141 142 147 147 142 143 147 147 149 150 145 137 140 144 142 139 132 128 125 122 122 120 117 116 114 119 124 127 120 132 148 158 182 189 182 205 205 127 81 92 79 84
123 66 108 150 147 183 216 230 257 261 319 317 308 341 318 103 74 98 111 83 135 204 87 202 162 140 114 119 129 135 138 140 135 137 137 131 128 130 139 143 147 150 151 150 150 150 141 144 148 150 153 153 150 149 146 140 141 140 141 137 129 130 129 132 129 127 124 124 126 132 132 108 124 145 164 159 159 139 116 158 52 77 72 71 96 79
77 41 204 132 180 206 205 203 258 343 28 28 56 55 45 50 109 79 84 151 158 78 356 274 155 141 185 185 167 148 142 136 134 129 130 132 138 143 145 147 144 147 150 149 147 148 153 152 148 152 155 150 150 151 145 141 143 144 147 138 134 136 134 137 136 134 133 135 135 138 144 176 162 143 167 133 113 124 156 172 164 147 135 97 92 96
131 142 250 108 297 259 205 221 45 49 71 64 53 59 54 37 58 96 129 154 141 128 186 219 169 156 186 185 177 166 159 152 147 144 145 143 139 139 143 147 149 150 152 153 154 153 150 151 154 160 157 153 150 155 152 148 142 145 137 135 140 141 145 144 138 139 140 140 142 157 176 157 159 180 141 115 116 115 120 119 13 93 122 136 154 160
91 216 205 131 269 321 312 349 61 98 79 73 67 53 47 52 56 56 46 348 164 151 155 149 183 195 175 191 156 149 141 131 130 130 135 142 144 141 146 149 151 155 158 162 163 160 157 156 161 163 156 155 158 159 157 149 145 143 138 142 144 146 150 141 138 141 146 146 150 156 172 182 154 127 104 123 136 185 208 296 323 27 101 112 106 135
85 279 256 110 94 305 296 327 86 117 104 98 96 97 85 76 55 44 72 68 70 62 95 119 99 61 316 106 110 122 123 123 129 148 152 148 144 144 151 155 155 160 163 166 167 165 162 156 161 156 156 160 162 166 158 148 139 136 140 144 147 151 155 138 136 146 147 149 150 156 179 152 132 129 160 79 171 246 232 256 164 153 186 193 201 209
70 279 24 53 74 317 314 354 52 85 83 91 83 85 102 96 86 317 104 206 130 153 137 118 127 190 168 117 116 128 137 146 152 154 152 153 154 152 153 159 158 162 162 165 168 163 168 162 161 164 163 164 166 164 149 142 139 142 146 150 151 152 140 128 136 143 149 149 149 162 162 157 144 158 158 117 217 209 223 254 89 157 196 243 233 246
158 109 52 27 61 275 278 10 108 117 72 54 23 169 116 84 132 132 11 15 158 149 138 156 212 183 142 139 122 140 150 155 153 158 153 157 161 160 159 160 164 165 168 168 168 166 166 171 168 166 167 165 166 159 150 143 143 150 150 151 150 139 136 139 140 140 143 150 152 159 156 155 152 172 186 201 201 205 240 256 221 168 190 215 235 219
67 89 126 143 103 265 304 331 0 54 50 67 236 214 170 161 153 110 75 3 335 98 200 191 159 127 129 145 142 161 162 173 171 179 168 162 164 166 161 159 160 161 164 165 164 161 166 170 168 165 168 170 161 151 148 145 148 148 144 138 137 139 139 137 139 140 144 145 155 161 159 164 169 172 192 217 217 208 273 266 306 246 208 223 268 227
128 70 149 133 92 304 351 23 45 37 4 258 322 20 78 106 96 103 82 48 106 98 95 96 115 142 164 164 162 165 162 147 155 154 168 163 157 159 164 166 166 163 162 164 166 167 165 167 164 159 160 167 156 140 134 132 138 140 138 134 133 136 135 138 139 142 146 148 161 165 165 163 176 186 201 216 224 227 249 254 204 214 188 190 198 224
160 139 166 45 137 33 40 29 86 189 235 280 92 141 118 110 126 92 53 1 347 126 126 123 134 128 133 123 111 121 129 122 108 137 152 159 158 152 156 165 167 164 163 166 166 169 171 170 165 162 161 154 146 139 137 142 146 142 140 135 135 140 141 143 141 148 148 141 155 166 170 164 190 188 203 208 225 230 246 223 192 199 218 205 215 231
142 107 89 58 91 124 170 107 176 318 337 338 7 321 325 251 175 149 127 310 226 204 130 131 104 97 109 109 118 106 107 106 113 134 175 161 158 157 160 165 170 176 173 174 171 171 174 167 160 157 153 154 149 144 144 145 143 137 135 136 139 142 146 143 146 154 157 147 152 164 170 172 181 189 204 216 215 230 238 222 223 233 217 173 264 273
149 123 216 108 285 113 139 344 8 22 190 272 246 264 292 291 202 149 99 244 309 221 152 138 150 149 126 114 116 120 110 103 143 210 205 163 155 156 160 162 164 165 167 167 167 158 157 159 157 153 154 151 152 150 151 148 149 146 142 142 145 145 149 149 157 163 159 157 160 180 183 174 173 187 201 205 219 222 230 221 220 213 209 189 212 236
24 119 155 138 175 94 81 143 188 158 241 212 264 284 290 328 283 108 69 332 265 188 200 144 146 159 151 140 138 131 124 154 199 208 217 147 150 145 142 148 155 160 160 162 160 158 162 162 160 155 150 148 151 152 145 139 139 140 141 144 146 147 149 160 164 167 164 170 171 181 185 180 161 181 195 201 216 213 204 207 211 219 203 203 199 226
46 15 28 85 153 163 139 94 166 193 224 257 247 275 287 312 320 58 37 283 257 179 159 147 153 161 168 147 142 141 151 170 195 211 188 153 147 148 143 145 149 154 152 154 158 163 158 152 152 157 149 154 155 151 146 140 140 141 144 149 146 149 159 169 174 181 177 171 175 181 182 182 177 179 188 206 225 236 225 211 212 220 214 234 219 249
16 1 51 62 63 37 80 170 24 302 279 282 285 297 304 292 77 89 189 233 250 172 170 170 167 158 148 148 156 144 224 196 181 215 135 135 124 128 133 137 141 139 151 160 153 149 153 156 162 162 156 157 155 154 151 143 142 149 151 151 151 167 176 178 174 171 181 176 173 177 186 187 184 190 201 203 211 209 208 197 205 215 219 228 246 249
9 59 339 37 26 57 120 112 205 235 236 220 278 266 279 30 15 212 236 202 166 169 175 159 141 134 132 139 131 132 175 217 70 198 141 146 141 140 139 137 134 130 132 133 140 149 153 155 159 156 155 154 152 151 149 149 155 155 152 152 169 184 181 165 169 162 165 174 177 185 186 189 192 190 201 209 182 185 204 215 222 217 215 229 223 229
217 104 49 87 312 33 56 79 16 118 274 229 298 359 24 107 229 204 154 9 131 141 138 135 140 147 137 121 130 141 153 149 149 158 160 149 137 140 142 142 141 142 144 141 144 150 151 150 153 155 145 140 144 146 151 151 152 158 156 167 184 177 171 170 165 158 160 169 174 183 190 196 197 199 201 207 205 193 206 216 220 234 225 221 227 226
199 82 237 268 170 144 68 100 196 211 225 297 47 179 254 201 187 169 132 103 63 129 145 123 120 150 147 133 141 141 149 139 138 148 152 159 136 136 137 137 136 132 137 146 149 151 151 146 138 127 126 134 141 151 152 150 153 161 165 186 177 167 169 163 164 158 162 172 176 186 193 201 208 210 211 209 207 207 222 243 244 240 219 208 200 216
243 156 177 155 218 134 189 212 247 240 229 316 170 218 173 4 72 171 118 155 153 187 145 130 145 152 151 141 141 146 148 166 155 164 159 164 142 140 140 142 137 137 143 147 150 145 143 145 145 138 142 147 144 156 161 160 159 163 178 187 156 167 165 165 157 158 168 178 180 186 198 201 214 217 216 218 197 211 233 250 244 252 264 249 242 229
282 197 206 88 207 254 148 172 197 53 46 31 42 62 110 58 24 79 142 141 186 169 167 159 162 153 151 156 134 160 147 152 143 152 153 135 129 127 126 123 119 121 127 131 138 143 145 146 149 148 144 150 160 168 158 156 158 167 186 166 170 162 161 159 157 165 175 177 180 197 196 199 220 221 218 224 213 219 223 228 239 235 256 253 244 234
299 30 86 106 245 79 172 332 87 139 149 83 79 46 44 51 43 43 91 118 157 161 165 154 151 151 153 167 147 144 139 139 131 128 137 133 132 135 132 128 133 139 142 146 148 142 138 144 147 155 154 155 165 158 156 153 163 167 159 162 162 154 152 159 164 168 177 179 185 199 200 202 210 223 231 232 236 235 230 227 224 235 248 239 233 237
316 165 64 109 102 128 206 222 183 146 125 126 122 113 99 72 47 38 68 123 129 127 131 137 121 115 136 143 148 134 134 143 141 148 159 166 152 142 135 136 141 146 147 144 142 137 135 155 165 155 153 152 161 156 152 151 154 158 156 154 155 150 155 159 170 171 184 189 188 193 199 204 214 211 223 234 228 230 243 243 231 227 237 231 220 220
179 68 189 162 99 327 15 42 128 80 53 40 49 43 147 151 109 73 73 85 99 116 131 132 141 150 158 148 133 129 130 148 161 156 155 155 143 138 138 141 150 148 147 150 158 158 158 160 152 155 154 160 159 153 152 152 153 156 156 159 153 150 155 169 179 175 191 197 192 208 203 206 216 219 219 234 237 238 225 228 234 231 245 240 209 203
53 314 282 58 70 57 172 216 141 103 218 250 216 176 151 173 110 101 89 83 94 111 128 139 133 149 141 149 148 147 143 155 175 164 152 149 143 140 140 142 147 150 156 155 144 138 145 150 151 156 157 159 160 155 155 156 159 161 160 157 156 153 158 170 179 183 203 197 203 223 224 220 224 224 225 222 232 243 265 244 233 227 222 251 239 227
130 185 121 150 156 213 243 238 195 149 149 217 180 169 162 149 105 108 116 120 121 133 139 139 145 161 153 162 158 151 151 159 170 157 139 142 145 148 149 147 149 150 155 140 126 141 145 151 153 151 156 161 159 159 159 160 162 162 164 161 160 159 167 170 179 187 205 208 217 220 225 232 236 242 238 239 234 236 243 271 283 255 242 245 261 256